Concord, CA

3:36 AM PDT on March 27, 2017 (GMT -0700)
Buchanan

Weather History for KCCR - May, 2014

Change the Weather History Date:

Tuesday, May 6, 2014

  Actual Average Record
Temperature  
Mean Temperature 62 °F 62 °F  
Max Temperature 73 °F 74 °F 90 °F (2001)
Min Temperature 51 °F 50 °F 44 °F (2010)
Degree Days  
Heating Degree Days 3    
Month to date heating degree days 11  
Since 1 July heating degree days 2091  
Cooling Degree Days 0    
Month to date cooling degree days 13  
Year to date cooling degree days 30  
Growing Degree Days 12 (Base 50)    
Moisture  
Dew Point 42 °F    
Average Humidity 54    
Maximum Humidity 77    
Minimum Humidity 31    
Precipitation  
Precipitation 0.00 in - 0.08 in (2016)
Month to date precipitation 0.00  
Year to date precipitation 7.97  
Since 1 July precipitation 10.45  
Sea Level Pressure  
Sea Level Pressure 29.85 in    
Wind  
Wind Speed 9 mph (WSW)    
Max Wind Speed 18 mph    
Max Gust Speed 26 mph    
Visibility 10 miles    
Events      
T = Trace of Precipitation, MM = Missing Value Source: NWS Daily Summary

Daily Weather History Graph

Daily Weather History Graph

Search for Another Location

Airport or City:

Trip Planner

Search our weather history database for the weather conditions in past years. The results will help you decide how hot, cold, wet, or windy it might be!

Date:

Astronomy

May. 06, 2014 Rise Set
Actual Time 6:06 AM PDT 8:03 PM PDT
Civil Twilight 5:37 AM PDT 8:32 PM PDT
Nautical Twilight 5:02 AM PDT 9:07 PM PDT
Astronomical Twilight 4:25 AM PDT 9:45 PM PDT
Moon 12:26 PM PDT (5/6) 1:26 AM PDT (5/6)
Length of Visible Light 14h 54m
Length of Day
13h 57m
Waxing Crescent, 47% of the Moon is Illuminated
May 6
Waxing Crescent
May 6
First Quarter
May 14
Full
May 21
Last Quarter
May 28
New

Hourly Weather History & Observations

Time (PDT) Temp. Dew Point Humidity Pressure Visibility Wind Dir Wind Speed Gust Speed Precip Events Conditions
4:53 AM 51.1 °F 41.0 °F 68% 29.88 in 10.0 mi West 8.1 mph - N/A   Partly Cloudy
5:53 AM 51.1 °F 42.1 °F 71% 29.88 in 10.0 mi WSW 6.9 mph - N/A   Mostly Cloudy
7:53 AM 53.1 °F 42.1 °F 66% 29.90 in 10.0 mi SW 4.6 mph - N/A   Scattered Clouds
8:53 AM 55.9 °F 43.0 °F 62% 29.89 in 10.0 mi Calm Calm - N/A   Clear
9:53 AM 61.0 °F 42.1 °F 50% 29.88 in 10.0 mi South 4.6 mph - N/A   Clear
10:53 AM 64.0 °F 41.0 °F 43% 29.88 in 10.0 mi West 10.4 mph - N/A   Clear
11:53 AM 68.0 °F 39.0 °F 35% 29.87 in 10.0 mi NW 9.2 mph 17.3 mph N/A   Clear
12:53 PM 69.1 °F 37.9 °F 32% 29.85 in 10.0 mi West 8.1 mph - N/A   Clear
1:53 PM 72.0 °F 39.0 °F 30% 29.83 in 10.0 mi West 11.5 mph 18.4 mph N/A   Clear
2:53 PM 71.1 °F 42.1 °F 35% 29.83 in 10.0 mi WSW 13.8 mph 23.0 mph N/A   Clear
3:53 PM 72.0 °F 42.1 °F 34% 29.82 in 10.0 mi WSW 9.2 mph - N/A   Partly Cloudy
4:53 PM 71.1 °F 41.0 °F 34% 29.82 in 10.0 mi West 12.7 mph - N/A   Clear
5:53 PM 71.1 °F 43.0 °F 36% 29.82 in 10.0 mi WSW 10.4 mph - N/A   Partly Cloudy
6:53 PM 68.0 °F 43.0 °F 40% 29.81 in 10.0 mi West 12.7 mph - N/A   Clear
7:53 PM 64.9 °F 43.0 °F 45% 29.82 in 10.0 mi WSW 8.1 mph - N/A   Clear
8:53 PM 62.1 °F 44.1 °F 52% 29.83 in 10.0 mi Variable 4.6 mph - N/A   Clear
9:53 PM 60.1 °F 46.9 °F 62% 29.84 in 10.0 mi South 5.8 mph - N/A   Clear
10:53 PM 57.9 °F 46.9 °F 67% 29.85 in 10.0 mi SSW 10.4 mph - N/A   Clear
11:53 PM 55.9 °F 48.0 °F 75% 29.85 in 10.0 mi SSW 12.7 mph - N/A   Clear